Location: Unspecified
(0.0000°N, 0.0000°E)
Time: 22:49:55
(UTC+00:00)

ISS - Pass Details

Date: 21 April 2018
Orbit: 403 x 406 km, 51.6° (Epoch: 25 April)

Event Time Altitude Azimuth Distance (km) Brightness Sun altitude
Rises 18:32:59 0° 304° (WNW) 2,311 1.5 -8.4°
Reaches altitude 10° 18:35:20 10° 288° (WNW) 1,455 0.7 -9.0°
Maximum altitude 18:37:58 22° 234° (SW) 934 -1.4 -9.6°
Drops below altitude 10° 18:40:36 10° 181° (S) 1,460 -1.1 -10.2°
Sets 18:42:58 0° 165° (SSE) 2,321 -0.3 -10.8°
